< Cyclone 199001 1990 Season Cyclone 199003 >
Cyclone 199002 (FELICITY)
General InformationTrack Information on Google MapsDetailed Wind InformationList of All Images || ResourceGoogle EarthGE AnimationAtom FeedGeoJSON
Detalied Best Track (Time Zone = UTC)
Year Month Day Hour Lat. Long. Pressure (hPa) Wind (kt) Class Image Chart
1989 12 13 00 -11.5 134.0 1001 25 2 Image --
1989 12 13 06 -12.0 134.0 997 25 2 Image --
1989 12 13 12 -12.8 134.2 1000 25 2 Image --
1989 12 13 18 -13.6 134.9 1001 25 2 Image --
1989 12 14 00 -14.3 135.4 1000 25 2 Image --
1989 12 14 06 -14.5 136.1 995 25 2 Image --
1989 12 14 12 -15.0 137.0 995 30 2 Image --
1989 12 14 18 -15.4 138.0 995 40 3 Image --
1989 12 15 00 -15.7 139.2 985 50 4 Image --
1989 12 15 06 -16.1 140.5 975 65 5 Image --
1989 12 15 09 -16.5 141.0 970 75 5 Image --
1989 12 15 12 -16.6 141.5 985 65 5 Image --
1989 12 15 18 -17.2 142.5 1000 40 3 Image --
1989 12 16 00 -17.4 144.0 1000 25 2 Image --
1989 12 16 06 -17.2 145.8 999 25 2 Image --
1989 12 16 12 -17.2 147.2 994 45 3 Image --
1989 12 16 18 -16.8 148.9 994 45 3 Image --
1989 12 17 00 -16.6 149.4 993 60 4 Image --
1989 12 17 06 -16.2 150.3 992 60 4 Image --
1989 12 17 12 -15.9 151.0 994 55 4 Image --
1989 12 17 18 -15.4 152.0 995 55 4 Image --
1989 12 18 00 -15.1 153.6 995 50 4 Image --
1989 12 18 06 -15.6 155.0 995 35 3 Image --
1989 12 18 12 -16.0 156.3 995 30 2 Image --
1989 12 18 18 -16.5 157.6 995 25 2 Image --
1989 12 19 00 -17.2 158.6 995 25 2 Image --
1989 12 19 06 -18.9 159.5 995 25 2 Image --
1989 12 19 12 -20.1 160.2 995 20 2 Image --
1989 12 19 18 -21.3 160.6 996 20 2 Image --
1989 12 20 00 -22.1 161.0 999 20 2 Image --
< Cyclone 199001 1990 Season Cyclone 199003 >

Help